[[{"header":{"parameterUnit":"m.s-1","parameterCategory":2,"la1":30.2991,"la2":30.254,"lo1":-89.0895,"lo2":-89.0444,"dy":0.0017,"dx":0.0017,"nx":28,"ny":28,"refTime":"2025-11-08T03:00:00:Z","depth":"0","parameterNumber":2,"parameterNumberName":"U-component_of_CURRENTS"},"data":[0,0,0,0,0,0,0,0,0,0,0,0,0,0,0,0,0,0,0,0,0,0,0,0,0,0,0,0,0,0,0,0,0,0,0,0,0,0,0,0,0,0,0,0,0,0,0,0,0,0,0,0,0,0,0,0,0,0,-0.3703,-0.3702,0,-0.3604,-0.3603,-0.3602,-0.3562,-0.3563,-0.3563,-0.3563,-0.3417,-0.3413,-0.3409,0,0,0,0,0,0,0,0,0,0,0,0,0,-0.382,-0.3819,-0.3704,-0.3702,-0.3701,-0.3604,-0.3603,-0.3602,-0.3562,-0.3563,-0.3563,-0.3563,-0.3418,-0.3413,-0.3409,0,0,0,0,0,0,0,0,0,0,0,0,0,-0.3751,-0.3818,-0.3704,-0.3669,-0.3665,-0.3605,-0.3603,-0.3602,-0.3562,-0.3563,-0.3563,-0.3563,-0.342,-0.3414,-0.3408,-0.3365,0,0,-0.3389,-0.3387,0,0,0,0,0,0,0,0,-0.3755,-0.3747,-0.3676,-0.3671,-0.3667,-0.3595,-0.3591,-0.352,-0.3562,-0.3602,-0.3563,-0.3563,-0.3472,-0.3461,-0.3444,-0.3358,-0.3352,-0.3389,-0.3385,-0.3383,-0.3381,0,0,0,0,0,0,0,-0.376,-0.3751,-0.3665,-0.3674,-0.3669,-0.3645,-0.3636,-0.3577,-0.3536,-0.3599,-0.3595,-0.3583,-0.3469,-0.345,-0.344,-0.335,-0.3389,-0.3384,-0.338,-0.3377,-0.3153,-0.3151,0,0,0,0,0,0,-0.3772,-0.3755,-0.3668,-0.3662,-0.3712,-0.3643,-0.3633,-0.3619,-0.3538,-0.3526,-0.3583,-0.3582,-0.346,-0.3447,-0.3434,-0.3347,-0.3383,-0.3377,-0.3373,-0.3156,-0.3153,-0.315,0,0,0,0,0,0,-0.3775,-0.3765,-0.3672,-0.3706,-0.3692,-0.3641,-0.3625,-0.3616,-0.3599,-0.3526,-0.3514,-0.3574,-0.346,-0.3443,-0.335,-0.3342,-0.3374,-0.3369,-0.3158,-0.3155,-0.3151,-0.3191,0,0,0,0,0,0,-0.3779,-0.3767,-0.3757,-0.3707,-0.3691,-0.3619,-0.3624,-0.3614,-0.359,-0.3588,-0.3514,-0.3501,-0.3459,-0.3359,-0.3344,-0.3334,-0.3364,-0.3161,-0.3157,-0.3153,-0.3193,-0.3189,-0.3186,0,0,0,0,0,-0.3783,-0.3736,-0.3757,-0.3746,-0.3681,-0.3618,-0.3606,-0.3572,-0.359,-0.3563,-0.3506,-0.3504,-0.3322,-0.3352,-0.3335,-0.3323,-0.3163,-0.3158,-0.3153,-0.3194,-0.319,-0.3187,0,0,0,0,0,0,-0.3781,-0.3727,-0.3748,-0.3692,-0.3665,-0.361,-0.3571,-0.3576,-0.3516,-0.3505,-0.3466,-0.3445,-0.3365,-0.3325,-0.336,-0.324,-0.3245,-0.3237,-0.3282,-0.3278,-0.3275,-0.3301,-0.3359,0,0,0,0,0,-0.3783,-0.3722,-0.3705,-0.3655,-0.3648,-0.3626,-0.36,-0.358,-0.3524,-0.35,-0.3454,-0.3391,-0.333,-0.329,-0.3222,-0.3153,-0.314,-0.3132,-0.3129,-0.3127,-0.3132,-0.3115,-0.3113,-0.3133,-0.3133,-0.3133,0,0,-0.3766,-0.3726,-0.3695,-0.3649,-0.3626,-0.3583,-0.3608,-0.3552,-0.3516,-0.349,-0.3412,-0.3376,-0.3306,-0.3225,-0.3188,-0.3193,-0.3107,-0.3121,-0.312,-0.3126,-0.3109,-0.3108,-0.3107,-0.313,-0.313,-0.3131,0,0,-0.3667,-0.3678,-0.3597,-0.3576,-0.3534,-0.3531,-0.3525,-0.3484,-0.3472,-0.3394,-0.3378,-0.3338,-0.3223,-0.3194,-0.3161,-0.3097,-0.3092,-0.3071,-0.308,-0.3063,-0.3062,-0.3062,-0.3028,-0.3025,-0.3071,-0.3071,-0.3071,0,-0.3663,-0.3568,-0.3565,-0.3494,-0.3484,-0.3515,-0.3465,-0.3444,-0.3375,-0.3377,-0.3358,-0.3257,-0.3211,-0.3158,-0.3135,-0.3098,-0.3078,-0.311,-0.3065,-0.3064,-0.3064,-0.3029,-0.3025,-0.3072,-0.3072,-0.3072,-0.3072,0,-0.3497,-0.3455,-0.3406,-0.3347,-0.3339,-0.329,-0.3301,-0.3293,-0.3303,-0.3295,-0.3254,-0.3197,-0.3154,-0.3134,-0.311,-0.3087,-0.307,-0.3071,-0.3093,-0.3065,-0.3028,-0.3023,-0.3074,-0.3074,-0.3073,-0.3073,0,0,-0.3427,-0.3317,-0.3305,-0.3294,-0.3271,-0.3253,-0.3229,-0.3235,-0.3248,-0.3198,-0.3202,-0.3124,-0.3151,-0.3115,-0.3106,-0.3093,-0.3071,-0.3082,-0.308,-0.3079,-0.3018,-0.291,-0.2894,-0.3072,-0.3072,-0.3071,-0.2991,0,-0.3323,-0.317,-0.3159,-0.3093,-0.3058,-0.3123,-0.3114,-0.3129,-0.3152,-0.3157,-0.3158,-0.3131,-0.3126,-0.3123,-0.3112,-0.3089,-0.3061,-0.3092,-0.3017,-0.3014,-0.2948,-0.2886,-0.2767,-0.2678,-0.2987,-0.2986,-0.2985,0,-0.3171,-0.311,-0.2996,-0.3019,-0.302,-0.2998,-0.307,-0.3061,-0.3103,-0.3121,-0.3132,-0.3138,-0.3127,-0.3122,-0.3075,-0.3095,-0.3054,-0.303,-0.3027,-0.2912,-0.2896,-0.2752,-0.2657,-0.2651,-0.2977,-0.2978,-0.2978,0,-0.3094,-0.3022,-0.294,-0.2928,-0.2934,-0.2947,-0.2987,-0.3042,-0.3066,-0.3109,-0.3124,-0.3126,-0.3111,-0.3085,-0.304,-0.3059,-0.2976,-0.2996,-0.2852,-0.2844,-0.272,-0.2701,-0.2636,-0.2943,-0.2943,-0.2943,-0.2944,0,-0.2973,-0.2936,-0.2901,-0.2851,-0.2848,-0.2896,-0.2917,-0.2965,-0.3028,-0.3043,-0.3101,-0.3094,-0.31,-0.3062,-0.3032,-0.2911,-0.2962,-0.2834,-0.281,-0.2723,-0.2706,-0.2676,-0.272,-0.294,-0.2941,-0.2942,-0.2942,0,-0.2868,-0.2828,-0.2762,-0.2762,-0.278,-0.278,-0.2867,-0.2888,-0.2967,-0.2988,-0.2999,-0.305,-0.2995,-0.2976,-0.2917,-0.2866,-0.2737,-0.2731,-0.2617,-0.2579,-0.2435,-0.2485,-0.2398,-0.2326,-0.2562,-0.2558,-0.2556,0,-0.2794,-0.2713,-0.2668,-0.265,-0.2645,-0.2677,-0.2703,-0.2821,-0.2854,-0.2943,-0.2936,-0.292,-0.2862,-0.2743,-0.2652,-0.2546,-0.2586,-0.2391,-0.2401,-0.2386,-0.2426,-0.2481,-0.2432,-0.225,-0.2245,-0.224,-0.2237,0,-0.267,-0.2621,-0.2549,-0.249,-0.2498,-0.2532,-0.2587,-0.2615,-0.2745,-0.2764,-0.2762,-0.2727,-0.2621,-0.2462,-0.2345,-0.2276,-0.2342,-0.23,-0.232,-0.2191,-0.2212,-0.2143,-0.235,-0.22,-0.2204,-0.2207,-0.2209,-0.221,-0.2572,-0.2492,-0.2367,-0.2323,-0.2333,-0.2356,-0.2299,-0.2388,-0.2409,-0.2351,-0.252,-0.2375,-0.2349,-0.2149,-0.2074,-0.1938,-0.2031,-0.1907,-0.1972,-0.2031,-0.1946,-0.2054,-0.1859,-0.1861,-0.1862,-0.1864,-0.1865,0,-0.2409,-0.232,-0.2238,-0.2155,-0.2083,-0.216,-0.2175,-0.2055,-0.1979,-0.1982,-0.194,-0.1966,-0.1866,-0.1832,-0.1761,-0.167,-0.1643,-0.165,-0.1723,-0.1688,-0.1793,-0.1762,-0.1494,-0.1494,-0.1494,-0.1494,-0.1494,-0.1494,-0.2292,-0.2145,-0.2083,-0.1906,-0.1857,-0.167,-0.161,-0.1486,-0.1391,-0.1233,-0.1203,-0.1205,-0.1482,-0.1781,-0.1709,-0.1609,-0.1601,-0.1537,-0.1587,-0.1705,-0.1736,-0.1766,-0.1745,-0.1477,-0.1478,-0.1406,-0.1406,-0.1406]},{"header":{"parameterUnit":"m.s-1","parameterCategory":2,"la1":30.2991,"la2":30.254,"lo1":-89.0895,"lo2":-89.0444,"dy":0.0017,"dx":0.0017,"nx":28,"ny":28,"refTime":"2025-11-08T03:00:00:Z","depth":"0","parameterNumber":3,"parameterNumberName":"V-component_of_CURRENTS"},"data":[0,0,0,0,0,0,0,0,0,0,0,0,0,0,0,0,0,0,0,0,0,0,0,0,0,0,0,0,0,0,0,0,0,0,0,0,0,0,0,0,0,0,0,0,0,0,0,0,0,0,0,0,0,0,0,0,0,0,0.0143,0.0143,0,0.0189,0.019,0.0191,0.0306,0.0308,0.0309,0.0311,0.0461,0.0463,0.0465,0,0,0,0,0,0,0,0,0,0,0,0,0,0.023,0.0228,0.0143,0.0143,0.0143,0.0189,0.019,0.0191,0.0306,0.0308,0.031,0.0312,0.046,0.0463,0.0466,0,0,0,0,0,0,0,0,0,0,0,0,0,0.0232,0.0227,0.0143,0.02,0.0206,0.0188,0.019,0.0191,0.0305,0.0308,0.031,0.0313,0.0459,0.0463,0.0466,0.0433,0,0,0.0477,0.0478,0,0,0,0,0,0,0,0,0.0232,0.0229,0.0192,0.0196,0.0202,0.0238,0.0275,0.0275,0.0304,0.0274,0.0311,0.0314,0.039,0.0399,0.041,0.044,0.0446,0.0477,0.0479,0.048,0.0481,0,0,0,0,0,0,0,0.0231,0.0228,0.0168,0.0191,0.0198,0.0249,0.0253,0.0276,0.0323,0.0277,0.0284,0.0277,0.0395,0.0406,0.0414,0.0449,0.0477,0.048,0.0482,0.0483,0.0479,0.0477,0,0,0,0,0,0,0.0204,0.0227,0.0166,0.0169,0.0216,0.0245,0.0249,0.023,0.0321,0.0335,0.0275,0.0282,0.0399,0.041,0.042,0.0414,0.048,0.0484,0.0486,0.0481,0.0479,0.0476,0,0,0,0,0,0,0.0206,0.0198,0.0164,0.0195,0.0194,0.0239,0.0217,0.0229,0.0249,0.0317,0.0335,0.0283,0.0401,0.0415,0.0438,0.042,0.0485,0.0488,0.0484,0.048,0.0477,0.0383,0,0,0,0,0,0,0.0208,0.0198,0.0177,0.0192,0.0191,0.0143,0.0214,0.0228,0.0237,0.0248,0.0329,0.0346,0.0405,0.0432,0.0441,0.0426,0.0491,0.0487,0.0482,0.0478,0.0389,0.0377,0.0367,0,0,0,0,0,0.0211,0.0136,0.0176,0.0168,0.0159,0.0141,0.0145,0.0193,0.0234,0.0226,0.0285,0.0344,0.0413,0.0433,0.0444,0.0429,0.0489,0.0484,0.0479,0.0394,0.038,0.0367,0,0,0,0,0,0,0.015,0.0141,0.0185,0.0112,0.0133,0.0158,0.0132,0.0179,0.0217,0.0227,0.0318,0.0336,0.0347,0.0387,0.0407,0.0411,0.0459,0.0456,0.039,0.0377,0.0366,0.0368,0.0494,0,0,0,0,0,0.0129,0.0077,0.0105,0.0047,0.0051,0.01,0.01,0.0134,0.0164,0.0184,0.0245,0.0296,0.0329,0.0355,0.0384,0.0385,0.0452,0.0379,0.0368,0.0358,0.0364,0.0447,0.0446,0.046,0.046,0.046,0,0,0.009,0.0073,0.0048,0.0033,0.0049,0.0036,0.0107,0.0083,0.0088,0.019,0.0205,0.0256,0.0317,0.0324,0.0332,0.0362,0.0383,0.0352,0.0344,0.0355,0.0442,0.0442,0.0441,0.0457,0.0457,0.0458,0,0,-0.003,-0.0027,-0.0094,-0.0081,-0.0075,-0.0042,-0.0049,-0.0014,0.0021,0.003,0.0109,0.0154,0.0192,0.0252,0.0282,0.0222,0.0316,0.0217,0.0176,0.0255,0.0256,0.0258,0.0326,0.0335,0.0219,0.0219,0.0219,0,-0.0068,-0.0136,-0.0115,-0.0159,-0.0154,-0.0078,-0.0111,-0.0083,-0.0039,-0.0008,0.0017,0.0109,0.0163,0.0207,0.0188,0.0202,0.0257,0.0227,0.0245,0.0248,0.0252,0.0322,0.0333,0.0214,0.0214,0.0215,0.0215,0,-0.0213,-0.0243,-0.0291,-0.0301,-0.0296,-0.0326,-0.0267,-0.0247,-0.0194,-0.014,-0.009,-0.0012,0.0059,0.0068,0.0112,0.0154,0.0186,0.0219,0.0288,0.0245,0.032,0.0333,0.0206,0.0208,0.021,0.0211,0,0,-0.0342,-0.0379,-0.0388,-0.0383,-0.0363,-0.0372,-0.037,-0.0325,-0.0297,-0.0242,-0.0193,-0.0134,-0.006,-0.0022,0.0049,0.0116,0.018,0.0167,0.0174,0.025,0.035,0.0406,0.0426,0.022,0.0222,0.0223,0.0389,0,-0.0437,-0.054,-0.0525,-0.057,-0.0591,-0.0509,-0.0504,-0.0451,-0.0381,-0.0319,-0.0215,-0.0159,-0.0104,-0.0063,0.0011,0.0143,0.0212,0.0132,0.0368,0.0375,0.0443,0.0442,0.0507,0.0663,0.0402,0.0405,0.0406,0,-0.056,-0.0603,-0.0679,-0.066,-0.066,-0.0669,-0.0604,-0.0589,-0.0481,-0.0424,-0.0332,-0.024,-0.0129,-0.0082,0.0131,0.0078,0.0199,0.0299,0.0309,0.0408,0.0455,0.0665,0.0697,0.0887,0.0427,0.0426,0.0424,0,-0.0645,-0.0694,-0.0752,-0.0751,-0.0733,-0.073,-0.0706,-0.062,-0.0589,-0.0477,-0.043,-0.0285,-0.0196,-0.0036,0.0172,0.0155,0.0414,0.0425,0.0589,0.0594,0.0722,0.0735,0.0984,0.0572,0.0572,0.0572,0.0571,0,-0.0745,-0.0779,-0.0793,-0.082,-0.0853,-0.0806,-0.0805,-0.0753,-0.0667,-0.0615,-0.0485,-0.0399,-0.018,-0.0002,0.0168,0.0429,0.0421,0.0593,0.0648,0.0685,0.0693,0.0922,0.0978,0.0578,0.0576,0.0575,0.0574,0,-0.0825,-0.0843,-0.0895,-0.09,-0.09,-0.092,-0.0885,-0.0871,-0.0781,-0.0703,-0.0672,-0.0469,-0.0228,0.0,0.0289,0.0438,0.0801,0.0759,0.078,0.0835,0.1141,0.1186,0.1477,0.1606,0.0963,0.0965,0.0967,0,-0.0865,-0.0913,-0.0965,-0.0995,-0.0999,-0.1013,-0.1017,-0.0943,-0.091,-0.073,-0.0691,-0.0452,-0.0238,0.0197,0.0489,0.0808,0.0941,0.104,0.1019,0.1185,0.1277,0.1303,0.1391,0.1149,0.1152,0.1155,0.1157,0,-0.0916,-0.0951,-0.1002,-0.1085,-0.1111,-0.1129,-0.1116,-0.1097,-0.0976,-0.0825,-0.061,-0.0423,-0.0043,0.0366,0.0751,0.094,0.1191,0.1105,0.1294,0.146,0.1492,0.1632,0.0997,0.1182,0.1179,0.1178,0.1176,0.1175,-0.0927,-0.099,-0.1072,-0.1135,-0.1187,-0.1198,-0.1132,-0.1061,-0.091,-0.0578,-0.0488,-0.004,0.0288,0.0856,0.1052,0.1484,0.1418,0.1626,0.1672,0.1687,0.1804,0.1208,0.1437,0.1437,0.1436,0.1435,0.1434,0,-0.0887,-0.0989,-0.1093,-0.115,-0.1186,-0.1207,-0.1146,-0.0991,-0.071,-0.0401,-0.0064,0.0541,0.099,0.1322,0.1804,0.2044,0.2094,0.2163,0.2233,0.23,0.1812,0.1813,0.2114,0.2114,0.2114,0.2113,0.2113,0.2113,-0.0869,-0.0962,-0.1037,-0.1093,-0.1126,-0.1031,-0.0941,-0.0693,-0.0428,0.0187,0.0691,0.0985,0.1395,0.2042,0.2507,0.2555,0.2775,0.2746,0.2857,0.2524,0.2478,0.2433,0.2452,0.2882,0.2882,0.3358,0.3362,0.3365]}],[{"header":{"parameterUnit":"m.s-1","parameterCategory":2,"la1":30.2991,"la2":30.254,"lo1":-89.0895,"lo2":-89.0444,"dy":0.0017,"dx":0.0017,"nx":28,"ny":28,"refTime":"2025-11-08T03:00:00:Z","depth":"2","parameterNumber":2,"parameterNumberName":"U-component_of_CURRENTS"},"data":[0,0,0,0,0,0,0,0,0,0,0,0,0,0,0,0,0,0,0,0,0,0,0,0,0,0,0,0,0,0,0,0,0,0,0,0,0,0,0,0,0,0,0,0,0,0,0,0,0,0,0,0,0,0,0,0,0,0,-0.2605,-0.2606,0,-0.2673,-0.2674,-0.2674,-0.2656,-0.2655,-0.2654,-0.2653,-0.2658,-0.2659,-0.266,0,0,0,0,0,0,0,0,0,0,0,0,0,-0.2431,-0.2434,-0.2605,-0.2606,-0.2607,-0.2673,-0.2674,-0.2674,-0.2656,-0.2655,-0.2654,-0.2653,-0.2657,-0.2658,-0.266,0,0,0,0,0,0,0,0,0,0,0,0,0,-0.2499,-0.2435,-0.2604,-0.261,-0.2611,-0.2673,-0.2674,-0.2674,-0.2657,-0.2655,-0.2654,-0.2653,-0.2657,-0.2658,-0.266,-0.2696,0,0,-0.2664,-0.2665,0,0,0,0,0,0,0,0,-0.2495,-0.2505,-0.2608,-0.261,-0.2611,-0.2659,-0.2614,-0.268,-0.2657,-0.2634,-0.2653,-0.2652,-0.2656,-0.2658,-0.2668,-0.2696,-0.2697,-0.2664,-0.2665,-0.2666,-0.2666,0,0,0,0,0,0,0,-0.249,-0.2501,-0.2627,-0.2609,-0.2612,-0.26,-0.2608,-0.2626,-0.2647,-0.2636,-0.2636,-0.2652,-0.2656,-0.2666,-0.2668,-0.2697,-0.2664,-0.2666,-0.2666,-0.2667,-0.2728,-0.2729,0,0,0,0,0,0,-0.2495,-0.2498,-0.2625,-0.2629,-0.2554,-0.2605,-0.2613,-0.2641,-0.2648,-0.265,-0.2653,-0.2651,-0.2665,-0.2666,-0.2668,-0.2698,-0.2666,-0.2667,-0.2668,-0.2727,-0.2728,-0.2729,0,0,0,0,0,0,-0.2492,-0.2507,-0.2622,-0.2567,-0.2582,-0.261,-0.2641,-0.2643,-0.2656,-0.2663,-0.2662,-0.2664,-0.2664,-0.2666,-0.2685,-0.2698,-0.2668,-0.2669,-0.2726,-0.2728,-0.2729,-0.2767,0,0,0,0,0,0,-0.2486,-0.2505,-0.252,-0.2569,-0.2586,-0.266,-0.2643,-0.2646,-0.267,-0.2668,-0.2672,-0.2671,-0.2663,-0.2683,-0.2686,-0.27,-0.267,-0.2725,-0.2727,-0.2728,-0.2765,-0.2769,-0.2773,0,0,0,0,0,-0.248,-0.2514,-0.2521,-0.2536,-0.2609,-0.2661,-0.2668,-0.2679,-0.2672,-0.2683,-0.2684,-0.2671,-0.2693,-0.2685,-0.2689,-0.2703,-0.2725,-0.2726,-0.2728,-0.2763,-0.2769,-0.2773,0,0,0,0,0,0,-0.2444,-0.2518,-0.2526,-0.2579,-0.2616,-0.266,-0.2677,-0.2688,-0.27,-0.2697,-0.269,-0.269,-0.2709,-0.2705,-0.2696,-0.2724,-0.2704,-0.2707,-0.2729,-0.2735,-0.2739,-0.2735,-0.2671,0,0,0,0,0,-0.2447,-0.2491,-0.2549,-0.2588,-0.261,-0.2644,-0.2665,-0.268,-0.2704,-0.2708,-0.2711,-0.2713,-0.2722,-0.2726,-0.2733,-0.2758,-0.2736,-0.2766,-0.2771,-0.2774,-0.2773,-0.2759,-0.2762,-0.2735,-0.2735,-0.2735,0,0,-0.2444,-0.2489,-0.2513,-0.2583,-0.2611,-0.2651,-0.2652,-0.2696,-0.272,-0.2708,-0.2731,-0.2733,-0.2732,-0.2752,-0.276,-0.2749,-0.2769,-0.2776,-0.2779,-0.2776,-0.2761,-0.2764,-0.2766,-0.2736,-0.2735,-0.2735,0,0,-0.246,-0.2501,-0.254,-0.2577,-0.2634,-0.2661,-0.2676,-0.2726,-0.2735,-0.277,-0.2759,-0.277,-0.2789,-0.2787,-0.2789,-0.2825,-0.2792,-0.2825,-0.2844,-0.2831,-0.2833,-0.2834,-0.2801,-0.28,-0.2826,-0.2826,-0.2826,0,-0.2445,-0.2509,-0.2556,-0.26,-0.2628,-0.2666,-0.2704,-0.2731,-0.2775,-0.2784,-0.2778,-0.2801,-0.2804,-0.2821,-0.283,-0.2834,-0.2812,-0.2826,-0.2836,-0.2837,-0.2838,-0.2803,-0.2801,-0.2828,-0.2828,-0.2828,-0.2828,0,-0.2493,-0.2538,-0.2565,-0.2631,-0.2667,-0.2709,-0.2757,-0.2785,-0.2801,-0.282,-0.2842,-0.2847,-0.2854,-0.286,-0.2859,-0.2869,-0.2846,-0.2843,-0.2822,-0.2843,-0.2805,-0.2802,-0.2831,-0.283,-0.283,-0.2829,0,0,-0.2455,-0.2574,-0.2577,-0.2608,-0.2686,-0.2719,-0.2768,-0.2814,-0.2836,-0.2864,-0.288,-0.2901,-0.2897,-0.2899,-0.2896,-0.289,-0.2879,-0.2872,-0.287,-0.2835,-0.2832,-0.2729,-0.2715,-0.2876,-0.2876,-0.2876,-0.28,0,-0.2463,-0.2549,-0.2606,-0.2663,-0.2703,-0.2755,-0.2793,-0.2839,-0.2868,-0.2894,-0.2901,-0.2916,-0.2913,-0.2915,-0.2912,-0.2892,-0.2874,-0.2899,-0.2819,-0.2816,-0.272,-0.2709,-0.252,-0.2429,-0.2796,-0.2796,-0.2795,0,-0.247,-0.2529,-0.2596,-0.2678,-0.2699,-0.2734,-0.2791,-0.2835,-0.2886,-0.2906,-0.2926,-0.2933,-0.2939,-0.2929,-0.2895,-0.291,-0.2873,-0.285,-0.2846,-0.2734,-0.2708,-0.2469,-0.2408,-0.2789,-0.279,-0.279,-0.2791,0,-0.2404,-0.2507,-0.2557,-0.2588,-0.2693,-0.2717,-0.2763,-0.2827,-0.2856,-0.2908,-0.2922,-0.2938,-0.2929,-0.2907,-0.2867,-0.2881,-0.2811,-0.2822,-0.2689,-0.2681,-0.2494,-0.2469,-0.2783,-0.2783,-0.2783,-0.2783,-0.2784,0,-0.238,-0.241,-0.253,-0.2555,-0.2593,-0.268,-0.2716,-0.2768,-0.2833,-0.2852,-0.2913,-0.291,-0.2922,-0.289,-0.2861,-0.275,-0.28,-0.2679,-0.2652,-0.2501,-0.2479,-0.2777,-0.2778,-0.278,-0.2781,-0.2782,-0.2782,0,-0.2288,-0.2377,-0.2429,-0.2538,-0.2564,-0.2585,-0.2676,-0.2702,-0.2781,-0.2807,-0.282,-0.2872,-0.2823,-0.2811,-0.2759,-0.2712,-0.2643,-0.2589,-0.24,-0.2352,-0.2524,-0.2528,-0.2435,-0.2431,-0.2427,-0.2424,-0.2421,0,-0.2247,-0.2271,-0.2385,-0.2402,-0.2444,-0.2498,-0.2529,-0.2645,-0.2678,-0.2764,-0.2758,-0.2749,-0.2691,-0.2585,-0.2501,-0.2401,-0.2511,-0.2189,-0.2184,-0.2504,-0.2488,-0.2497,-0.2505,-0.1949,-0.1943,-0.1938,-0.1934,0,-0.214,-0.2187,-0.2234,-0.2284,-0.232,-0.2364,-0.2425,-0.2447,-0.2569,-0.2594,-0.259,-0.2553,-0.2454,-0.2259,-0.2154,-0.2084,-0.2197,-0.2081,-0.2446,-0.2074,-0.2041,-0.2028,-0.2053,-0.1889,-0.1893,-0.1897,-0.1899,-0.1901,-0.2033,-0.2038,-0.2103,-0.2131,-0.2175,-0.2192,-0.2163,-0.2243,-0.2262,-0.2259,-0.235,-0.223,-0.2184,-0.1901,-0.1791,-0.1714,-0.1867,-0.1807,-0.1824,-0.1847,-0.1811,-0.1775,-0.1564,-0.1566,-0.1569,-0.1571,-0.1572,0,-0.188,-0.1908,-0.1936,-0.1964,-0.194,-0.2023,-0.205,-0.1991,-0.1939,-0.1991,-0.1955,-0.1735,-0.1592,-0.1558,-0.1357,-0.1315,-0.1322,-0.1274,-0.1294,-0.1338,-0.1378,-0.1321,-0.0942,-0.0941,-0.0939,-0.0937,0,0,-0.1798,-0.1773,-0.1799,-0.1711,-0.1719,-0.1624,-0.1595,-0.1546,-0.1534,-0.1455,-0.1413,-0.1514,-0.1511,-0.1239,-0.1162,-0.102,-0.1171,-0.0965,-0.1467,-0.1533,-0.1571,-0.1675,-0.1636,0,0,0,0,0]},{"header":{"parameterUnit":"m.s-1","parameterCategory":2,"la1":30.2991,"la2":30.254,"lo1":-89.0895,"lo2":-89.0444,"dy":0.0017,"dx":0.0017,"nx":28,"ny":28,"refTime":"2025-11-08T03:00:00:Z","depth":"2","parameterNumber":3,"parameterNumberName":"V-component_of_CURRENTS"},"data":[0,0,0,0,0,0,0,0,0,0,0,0,0,0,0,0,0,0,0,0,0,0,0,0,0,0,0,0,0,0,0,0,0,0,0,0,0,0,0,0,0,0,0,0,0,0,0,0,0,0,0,0,0,0,0,0,0,0,-0.0393,-0.0391,0,-0.0268,-0.0266,-0.0264,-0.0192,-0.0192,-0.0192,-0.0192,-0.0018,-0.0014,-0.0009,0,0,0,0,0,0,0,0,0,0,0,0,0,-0.0505,-0.0504,-0.0393,-0.0391,-0.039,-0.0268,-0.0266,-0.0264,-0.0192,-0.0192,-0.0192,-0.0192,-0.002,-0.0014,-0.0009,0,0,0,0,0,0,0,0,0,0,0,0,0,-0.0425,-0.0503,-0.0393,-0.0341,-0.0335,-0.0268,-0.0266,-0.0264,-0.0192,-0.0192,-0.0192,-0.0192,-0.0021,-0.0015,-0.0008,0.003,0,0,0.0013,0.0016,0,0,0,0,0,0,0,0,-0.0429,-0.042,-0.035,-0.0344,-0.0338,-0.0247,-0.0242,-0.0163,-0.0192,-0.0244,-0.0192,-0.0192,-0.0091,-0.0079,-0.0054,0.0038,0.0046,0.0013,0.0017,0.002,0.0022,0,0,0,0,0,0,0,-0.0435,-0.0425,-0.0341,-0.0348,-0.0341,-0.0302,-0.029,-0.0227,-0.0168,-0.024,-0.0235,-0.0224,-0.0087,-0.0061,-0.0049,0.0048,0.0013,0.0019,0.0023,0.0026,0.0198,0.0198,0,0,0,0,0,0,-0.0457,-0.043,-0.0345,-0.0338,-0.0386,-0.03,-0.0287,-0.0275,-0.017,-0.0154,-0.0224,-0.0221,-0.0072,-0.0057,-0.0043,0.0011,0.002,0.0027,0.003,0.0197,0.0198,0.0199,0,0,0,0,0,0,-0.046,-0.0451,-0.035,-0.0383,-0.0368,-0.0299,-0.0285,-0.0272,-0.0242,-0.0159,-0.0142,-0.0207,-0.0071,-0.0052,0.0017,0.0018,0.003,0.0036,0.0197,0.0198,0.0198,0.0118,0,0,0,0,0,0,-0.0464,-0.0453,-0.0457,-0.0384,-0.0367,-0.0315,-0.0285,-0.027,-0.0237,-0.0231,-0.0138,-0.0122,-0.007,0.0007,0.0024,0.0028,0.0041,0.0196,0.0197,0.0198,0.012,0.0116,0.0112,0,0,0,0,0,-0.0468,-0.0468,-0.0457,-0.0447,-0.0372,-0.0315,-0.0302,-0.0251,-0.0237,-0.0223,-0.016,-0.0125,0.0025,0.0013,0.0033,0.0039,0.0196,0.0197,0.0198,0.0122,0.0117,0.0112,0,0,0,0,0,0,-0.0514,-0.0459,-0.0446,-0.0428,-0.0381,-0.0303,-0.0287,-0.0254,-0.0194,-0.0189,-0.0113,-0.0091,-0.0033,0.0018,0.0003,0.0092,0.0114,0.0119,0.0049,0.0045,0.0041,0.0019,0.0047,0,0,0,0,0,-0.053,-0.0516,-0.0456,-0.0442,-0.0422,-0.0358,-0.0331,-0.0296,-0.0233,-0.0206,-0.0143,-0.0074,-0.0012,0.0026,0.0088,0.0142,0.019,0.0159,0.0155,0.0151,0.0148,0.0221,0.0223,0.0202,0.0202,0.0202,0,0,-0.0545,-0.0512,-0.0505,-0.0452,-0.041,-0.0384,-0.034,-0.03,-0.0277,-0.0196,-0.0145,-0.0085,-0.0001,0.0055,0.0085,0.0098,0.0182,0.0153,0.0148,0.0148,0.0222,0.0224,0.0225,0.0203,0.0203,0.0203,0,0,-0.0562,-0.0537,-0.0533,-0.0498,-0.0445,-0.0404,-0.0397,-0.0324,-0.0292,-0.0236,-0.0177,-0.0115,-0.0019,0.004,0.0082,0.0098,0.0156,0.0115,0.0084,0.0154,0.0156,0.0158,0.0213,0.0221,0.0116,0.0116,0.0116,0,-0.0586,-0.057,-0.0521,-0.0505,-0.0486,-0.0419,-0.041,-0.0362,-0.0278,-0.0252,-0.0231,-0.0093,-0.0026,0.0047,0.005,0.0088,0.0131,0.0089,0.0147,0.015,0.0154,0.0211,0.022,0.0112,0.0113,0.0113,0.0114,0,-0.0596,-0.0587,-0.0577,-0.0541,-0.0513,-0.0491,-0.043,-0.0396,-0.0354,-0.0304,-0.023,-0.0137,-0.0055,-0.0026,0.0019,0.0078,0.01,0.0127,0.0151,0.0151,0.0211,0.0222,0.0107,0.0108,0.0109,0.011,0,0,-0.0644,-0.0599,-0.0597,-0.0596,-0.0535,-0.0513,-0.0478,-0.0425,-0.0403,-0.0323,-0.0283,-0.0178,-0.013,-0.0079,-0.0012,0.005,0.0111,0.0091,0.0096,0.0131,0.0256,0.0285,0.0301,0.0145,0.0147,0.0149,0.0284,0,-0.0671,-0.0669,-0.0631,-0.0629,-0.0626,-0.0564,-0.054,-0.0484,-0.0423,-0.0365,-0.0267,-0.0203,-0.0148,-0.0112,-0.0041,0.0077,0.0139,0.0071,0.0264,0.0269,0.0284,0.0314,0.0282,0.0401,0.0296,0.0298,0.0299,0,-0.0698,-0.0695,-0.0708,-0.0687,-0.068,-0.0667,-0.0624,-0.0589,-0.0492,-0.0444,-0.0359,-0.0276,-0.0169,-0.0128,0.0067,0.0019,0.0126,0.0215,0.0223,0.0286,0.032,0.0389,0.0427,0.0319,0.0317,0.0316,0.0315,0,-0.0768,-0.075,-0.077,-0.0761,-0.0722,-0.0719,-0.0695,-0.0619,-0.0591,-0.0491,-0.0453,-0.0316,-0.0239,-0.0092,0.0094,0.0082,0.0306,0.0319,0.0446,0.0449,0.0479,0.0481,0.0452,0.0452,0.0452,0.0451,0.0451,0,-0.0817,-0.0829,-0.0808,-0.0819,-0.0844,-0.079,-0.0791,-0.0743,-0.0667,-0.0626,-0.0502,-0.0428,-0.0226,-0.007,0.0085,0.0306,0.0308,0.0449,0.0493,0.045,0.0448,0.0422,0.0417,0.0456,0.0455,0.0454,0.0453,0,-0.0884,-0.0867,-0.0892,-0.0878,-0.0878,-0.0897,-0.0867,-0.0857,-0.0776,-0.0714,-0.0685,-0.0502,-0.0292,-0.0085,0.0172,0.0301,0.0502,0.0578,0.0505,0.0538,0.0596,0.0585,0.073,0.0732,0.0734,0.0736,0.0737,0,-0.0916,-0.0936,-0.0953,-0.098,-0.0977,-0.099,-0.0996,-0.0927,-0.09,-0.0746,-0.0715,-0.0508,-0.0332,0.0046,0.0299,0.0576,0.0574,0.0696,0.0674,0.06,0.0628,0.0614,0.0601,0.0682,0.0682,0.0683,0.0684,0,-0.0978,-0.0985,-0.1007,-0.1069,-0.1093,-0.111,-0.1102,-0.1097,-0.099,-0.0905,-0.0739,-0.0584,-0.0215,0.0095,0.0436,0.0592,0.0646,0.0719,0.0689,0.0607,0.0564,0.0588,0.0575,0.0689,0.0689,0.0688,0.0688,0.0688,-0.1021,-0.106,-0.1097,-0.1152,-0.1186,-0.121,-0.1217,-0.1172,-0.1109,-0.0953,-0.0781,-0.0522,-0.0208,0.0278,0.0528,0.0739,0.074,0.0793,0.0788,0.0782,0.0744,0.0705,0.085,0.085,0.0851,0.0851,0.0851,0,-0.1069,-0.1111,-0.1175,-0.1234,-0.1285,-0.1277,-0.1269,-0.1235,-0.1151,-0.0969,-0.0774,-0.0408,-0.0049,0.0259,0.0608,0.0828,0.0801,0.0851,0.0776,0.077,0.0764,0.0721,0.0824,0.0824,0.0824,0.0825,0,0,-0.1094,-0.1168,-0.1204,-0.1302,-0.134,-0.1366,-0.1355,-0.1269,-0.1134,-0.0935,-0.0735,-0.0453,-0.0046,0.0194,0.0478,0.0656,0.0647,0.0665,0.0668,0.054,0.0531,0.0717,0.0643,0,0,0,0,0]}],[{"header":{"parameterUnit":"m.s-1","parameterCategory":2,"la1":30.2991,"la2":30.254,"lo1":-89.0895,"lo2":-89.0444,"dy":0.0017,"dx":0.0017,"nx":28,"ny":28,"refTime":"2025-11-08T03:00:00:Z","depth":"4","parameterNumber":2,"parameterNumberName":"U-component_of_CURRENTS"},"data":[0,0,0,0,0,0,0,0,0,0,0,0,0,0,0,0,0,0,0,0,0,0,0,0,0,0,0,0,0,0,0,0,0,0,0,0,0,0,0,0,0,0,0,0,0,0,0,0,0,0,0,0,0,0,0,0,0,0,-0.1759,-0.176,0,-0.1857,-0.1858,-0.1859,-0.1901,-0.19,-0.19,-0.19,-0.1997,-0.2,-0.2002,0,0,0,0,0,0,0,0,0,0,0,0,0,-0.1611,-0.1613,-0.1759,-0.176,-0.1762,-0.1857,-0.1859,-0.186,-0.1901,-0.19,-0.19,-0.19,-0.1996,-0.1999,-0.2002,0,0,0,0,0,0,0,0,0,0,0,0,0,-0.1687,-0.1614,-0.1759,-0.1795,-0.1799,-0.1857,-0.1859,-0.186,-0.1901,-0.19,-0.19,-0.19,-0.1995,-0.1999,-0.2003,-0.2029,0,0,-0.2015,-0.2017,0,0,0,0,0,0,0,0,-0.1683,-0.1693,-0.1788,-0.1792,-0.1797,-0.1868,-0.1842,-0.1917,-0.1901,-0.186,-0.19,-0.19,-0.1955,-0.1962,-0.1979,-0.2034,-0.2038,-0.2015,-0.2018,-0.2019,-0.2021,0,0,0,0,0,0,0,-0.1678,-0.1689,-0.1796,-0.179,-0.1795,-0.1808,-0.1818,-0.1856,-0.1906,-0.1864,-0.1867,-0.1881,-0.1957,-0.1975,-0.1981,-0.2039,-0.2015,-0.2019,-0.2021,-0.2023,-0.2189,-0.2191,0,0,0,0,0,0,-0.1669,-0.1684,-0.1793,-0.18,-0.1741,-0.181,-0.1822,-0.1844,-0.1905,-0.1915,-0.1881,-0.1883,-0.1968,-0.1977,-0.1985,-0.2085,-0.2019,-0.2023,-0.2025,-0.2187,-0.219,-0.2192,0,0,0,0,0,0,-0.1666,-0.1678,-0.1789,-0.1744,-0.176,-0.1813,-0.1837,-0.1846,-0.1894,-0.1919,-0.1928,-0.1923,-0.1968,-0.1979,-0.205,-0.2087,-0.2025,-0.2028,-0.2185,-0.2188,-0.2191,-0.2244,0,0,0,0,0,0,-0.1661,-0.1676,-0.1703,-0.1744,-0.1762,-0.1845,-0.1838,-0.1848,-0.1901,-0.1905,-0.1957,-0.1964,-0.1969,-0.2044,-0.2054,-0.2091,-0.2032,-0.2182,-0.2186,-0.219,-0.224,-0.2249,-0.2256,0,0,0,0,0,-0.1655,-0.169,-0.1704,-0.1718,-0.1792,-0.1847,-0.1858,-0.1894,-0.1903,-0.1934,-0.1972,-0.1964,-0.2075,-0.205,-0.206,-0.2099,-0.218,-0.2185,-0.219,-0.2236,-0.2247,-0.2256,0,0,0,0,0,0,-0.1641,-0.1699,-0.1714,-0.1766,-0.1812,-0.1855,-0.1893,-0.1914,-0.1969,-0.1983,-0.1997,-0.2008,-0.2081,-0.2089,-0.206,-0.2159,-0.2124,-0.2131,-0.2156,-0.2167,-0.2175,-0.216,-0.2035,0,0,0,0,0,-0.1649,-0.1693,-0.1743,-0.1787,-0.1814,-0.1859,-0.1891,-0.192,-0.1966,-0.1992,-0.2027,-0.2067,-0.2105,-0.2135,-0.2169,-0.2232,-0.2205,-0.2262,-0.2271,-0.2277,-0.2275,-0.2269,-0.2275,-0.2207,-0.2207,-0.2207,0,0,-0.1655,-0.1694,-0.1719,-0.1788,-0.1827,-0.188,-0.188,-0.1944,-0.1991,-0.1994,-0.2078,-0.2103,-0.2129,-0.2193,-0.2226,-0.2208,-0.2284,-0.2283,-0.2289,-0.2282,-0.2274,-0.228,-0.2286,-0.2211,-0.221,-0.2209,0,0,-0.1685,-0.1727,-0.1773,-0.1818,-0.1889,-0.1918,-0.1944,-0.201,-0.2045,-0.2125,-0.2132,-0.2179,-0.2253,-0.2268,-0.2284,-0.2362,-0.2327,-0.2381,-0.2415,-0.241,-0.2415,-0.2418,-0.2387,-0.2388,-0.2386,-0.2386,-0.2386,0,-0.1691,-0.1754,-0.1795,-0.1851,-0.1892,-0.1939,-0.1994,-0.2041,-0.2123,-0.215,-0.2163,-0.2255,-0.2283,-0.2333,-0.2364,-0.238,-0.2361,-0.2373,-0.2418,-0.2421,-0.2424,-0.2391,-0.2391,-0.2389,-0.2389,-0.2388,-0.2388,0,-0.1747,-0.1809,-0.1843,-0.1925,-0.1974,-0.2033,-0.2095,-0.2152,-0.2199,-0.2234,-0.2308,-0.2343,-0.2387,-0.241,-0.2417,-0.2458,-0.2432,-0.2425,-0.2384,-0.2433,-0.2396,-0.2395,-0.2394,-0.2392,-0.2391,-0.2391,0,0,-0.1719,-0.1855,-0.1868,-0.1916,-0.2018,-0.2059,-0.2143,-0.2215,-0.2258,-0.2333,-0.2378,-0.2451,-0.2458,-0.2476,-0.2486,-0.2492,-0.2503,-0.2476,-0.2474,-0.243,-0.2473,-0.2306,-0.2288,-0.2504,-0.2504,-0.2504,-0.2436,0,-0.1748,-0.1858,-0.192,-0.2018,-0.2074,-0.2141,-0.2206,-0.2278,-0.2334,-0.2391,-0.2425,-0.2477,-0.2486,-0.2509,-0.252,-0.2511,-0.2504,-0.2521,-0.2445,-0.2442,-0.2276,-0.2283,-0.2506,-0.2434,-0.2434,-0.2434,-0.2434,0,-0.1767,-0.1843,-0.1948,-0.2059,-0.2088,-0.2153,-0.2245,-0.2311,-0.2392,-0.2433,-0.2482,-0.2507,-0.2543,-0.2538,-0.2531,-0.2543,-0.2515,-0.2497,-0.2493,-0.2314,-0.2272,-0.2379,-0.2431,-0.2431,-0.2431,-0.2431,-0.2431,0,-0.1708,-0.1848,-0.1932,-0.1975,-0.2113,-0.2167,-0.2233,-0.2324,-0.2369,-0.2455,-0.2483,-0.2529,-0.2544,-0.2537,-0.2514,-0.2528,-0.2477,-0.2486,-0.2301,-0.2289,-0.2436,-0.2433,-0.2463,-0.2463,-0.2463,-0.2464,-0.2464,0,-0.1689,-0.1756,-0.1917,-0.1963,-0.2042,-0.2146,-0.2222,-0.2291,-0.2378,-0.2408,-0.2494,-0.2497,-0.2546,-0.2527,-0.2508,-0.2382,-0.2468,-0.229,-0.2256,-0.2461,-0.2462,-0.2434,-0.2432,-0.2461,-0.2462,-0.2462,-0.2462,0,-0.1603,-0.1719,-0.1817,-0.1976,-0.2022,-0.2076,-0.2204,-0.2243,-0.2343,-0.2381,-0.2407,-0.2471,-0.2432,-0.2442,-0.241,-0.2338,-0.2263,-0.2197,-0.2396,-0.2376,-0.2081,-0.2083,-0.1979,-0.1972,-0.1967,-0.1962,-0.1958,0,-0.1566,-0.1616,-0.1797,-0.1844,-0.192,-0.2018,-0.2071,-0.2204,-0.2236,-0.2333,-0.2322,-0.2334,-0.235,-0.2151,-0.2198,-0.2116,-0.2096,-0.2048,-0.2084,-0.2052,-0.203,-0.2041,-0.205,-0.1949,-0.1948,-0.1946,-0.1945,0,-0.1479,-0.1563,-0.1642,-0.1744,-0.1822,-0.1889,-0.1976,-0.1982,-0.2109,-0.2225,-0.216,-0.2122,-0.2061,-0.2019,-0.1956,-0.1914,-0.2081,-0.199,-0.2002,-0.2035,-0.2016,-0.2001,-0.2017,-0.1925,-0.1928,-0.193,-0.1931,0,-0.1401,-0.143,-0.1541,-0.1608,-0.1699,-0.1718,-0.1791,-0.1814,-0.186,-0.198,-0.1948,-0.1963,-0.2026,-0.191,-0.1863,-0.1793,-0.1774,-0.1731,-0.1756,-0.1778,-0.1746,-0.1694,-0.1456,0,0,0,0,0,-0.1308,-0.1324,-0.1385,-0.1453,-0.1535,-0.1579,-0.17,-0.1776,-0.1905,-0.1802,-0.1869,-0.1804,-0.1718,-0.1733,-0.1613,-0.1775,-0.1786,-0.1632,-0.1754,-0.1819,-0.1841,-0.1822,0,0,0,0,0,0,-0.1247,-0.1302,-0.1333,-0.13,-0.1304,-0.1369,-0.1436,-0.1532,-0.149,-0.1622,-0.1575,-0.168,-0.1615,-0.1729,-0.1562,-0.1568,-0.1607,-0.1661,-0.1656,-0.1806,-0.1826,-0.1844,-0.1832,0,0,0,0,0]},{"header":{"parameterUnit":"m.s-1","parameterCategory":2,"la1":30.2991,"la2":30.254,"lo1":-89.0895,"lo2":-89.0444,"dy":0.0017,"dx":0.0017,"nx":28,"ny":28,"refTime":"2025-11-08T03:00:00:Z","depth":"4","parameterNumber":3,"parameterNumberName":"V-component_of_CURRENTS"},"data":[0,0,0,0,0,0,0,0,0,0,0,0,0,0,0,0,0,0,0,0,0,0,0,0,0,0,0,0,0,0,0,0,0,0,0,0,0,0,0,0,0,0,0,0,0,0,0,0,0,0,0,0,0,0,0,0,0,0,-0.0317,-0.0317,0,-0.0247,-0.0246,-0.0245,-0.0208,-0.0208,-0.0208,-0.0208,-0.0076,-0.0072,-0.0069,0,0,0,0,0,0,0,0,0,0,0,0,0,-0.0368,-0.0367,-0.0318,-0.0317,-0.0316,-0.0247,-0.0246,-0.0245,-0.0208,-0.0208,-0.0208,-0.0208,-0.0077,-0.0073,-0.0068,0,0,0,0,0,0,0,0,0,0,0,0,0,-0.0325,-0.0367,-0.0318,-0.029,-0.0287,-0.0248,-0.0246,-0.0245,-0.0208,-0.0208,-0.0208,-0.0208,-0.0078,-0.0073,-0.0068,-0.0032,0,0,-0.0051,-0.0049,0,0,0,0,0,0,0,0,-0.0328,-0.0323,-0.0295,-0.0292,-0.0289,-0.0238,-0.0216,-0.0171,-0.0208,-0.0236,-0.0208,-0.0208,-0.0125,-0.0116,-0.0101,-0.0025,-0.002,-0.0051,-0.0047,-0.0045,-0.0044,0,0,0,0,0,0,0,-0.0331,-0.0326,-0.0288,-0.0294,-0.0291,-0.0264,-0.0259,-0.0207,-0.0178,-0.0234,-0.0231,-0.0226,-0.0123,-0.0106,-0.0097,-0.0018,-0.0051,-0.0046,-0.0043,-0.0041,0.0117,0.0118,0,0,0,0,0,0,-0.0345,-0.0329,-0.029,-0.0286,-0.0311,-0.0264,-0.0257,-0.0253,-0.018,-0.017,-0.0226,-0.0225,-0.0115,-0.0104,-0.0092,-0.0042,-0.0045,-0.004,-0.0037,0.0116,0.0117,0.0118,0,0,0,0,0,0,-0.0347,-0.0343,-0.0293,-0.0307,-0.0299,-0.0263,-0.0258,-0.0251,-0.0236,-0.0175,-0.0164,-0.0218,-0.0115,-0.01,-0.0043,-0.0036,-0.0038,-0.0033,0.0115,0.0116,0.0117,0.0058,0,0,0,0,0,0,-0.0349,-0.0344,-0.035,-0.0308,-0.0299,-0.0273,-0.0258,-0.025,-0.0233,-0.0231,-0.0164,-0.0152,-0.0114,-0.0052,-0.0038,-0.0029,-0.0029,0.0114,0.0115,0.0117,0.0059,0.0057,0.0056,0,0,0,0,0,-0.0351,-0.0356,-0.0351,-0.0346,-0.0307,-0.0273,-0.0266,-0.0239,-0.0233,-0.0226,-0.0178,-0.0155,-0.0031,-0.0047,-0.0031,-0.002,0.0113,0.0115,0.0117,0.0059,0.0057,0.0056,0,0,0,0,0,0,-0.0379,-0.0352,-0.0345,-0.0342,-0.0313,-0.0268,-0.0262,-0.0242,-0.02,-0.0198,-0.0141,-0.0125,-0.0075,-0.0034,-0.0053,0.0033,0.0045,0.005,-0.0004,-0.0005,-0.0007,-0.0028,-0.0024,0,0,0,0,0,-0.039,-0.0389,-0.0354,-0.0352,-0.0341,-0.0303,-0.0288,-0.0268,-0.0225,-0.0208,-0.0161,-0.0105,-0.0052,-0.002,0.003,0.008,0.0115,0.0099,0.0097,0.0095,0.0091,0.0152,0.0154,0.0125,0.0125,0.0125,0,0,-0.0402,-0.0387,-0.0387,-0.0359,-0.0336,-0.0318,-0.0293,-0.0273,-0.0255,-0.0198,-0.0159,-0.011,-0.004,0.001,0.0037,0.0045,0.0123,0.0098,0.0096,0.0092,0.0154,0.0157,0.0159,0.0126,0.0126,0.0126,0,0,-0.0418,-0.041,-0.0412,-0.039,-0.0361,-0.0334,-0.0331,-0.0286,-0.0265,-0.022,-0.0175,-0.0123,-0.0043,0.0007,0.0044,0.0069,0.0109,0.0087,0.0066,0.0125,0.0127,0.013,0.0171,0.0177,0.009,0.0089,0.0089,0,-0.0435,-0.0432,-0.0406,-0.0396,-0.0387,-0.0345,-0.0339,-0.0306,-0.0248,-0.0229,-0.0215,-0.0099,-0.0043,0.0023,0.0031,0.0064,0.0097,0.0061,0.012,0.0124,0.0127,0.0169,0.0177,0.0087,0.0087,0.0087,0.0088,0,-0.0445,-0.0444,-0.0442,-0.042,-0.0403,-0.0392,-0.0348,-0.0325,-0.0296,-0.026,-0.0199,-0.0122,-0.0055,-0.0025,0.0012,0.0068,0.0081,0.0104,0.0116,0.0126,0.017,0.0179,0.0083,0.0084,0.0085,0.0085,0,0,-0.0478,-0.0456,-0.0458,-0.0459,-0.0419,-0.0408,-0.0379,-0.0341,-0.0328,-0.0263,-0.0235,-0.0139,-0.0105,-0.0061,-0.0004,0.005,0.0104,0.0082,0.0086,0.0106,0.022,0.0195,0.0203,0.0133,0.0134,0.0136,0.0237,0,-0.0496,-0.0503,-0.0479,-0.0481,-0.0481,-0.0441,-0.0422,-0.0382,-0.0338,-0.0297,-0.0214,-0.0164,-0.0115,-0.0087,-0.0023,0.0074,0.0127,0.0073,0.0222,0.0226,0.0189,0.0213,0.0141,0.0244,0.0246,0.0248,0.0249,0,-0.0514,-0.0518,-0.0534,-0.0526,-0.0523,-0.0519,-0.0494,-0.0467,-0.0395,-0.036,-0.0291,-0.0227,-0.0133,-0.0098,0.0066,0.0027,0.0115,0.0188,0.0194,0.0197,0.0219,0.0238,0.0267,0.0265,0.0264,0.0263,0.0262,0,-0.0561,-0.0556,-0.058,-0.0575,-0.0555,-0.056,-0.0548,-0.0494,-0.0476,-0.0401,-0.0375,-0.026,-0.02,-0.0073,0.008,0.0074,0.0255,0.0271,0.0331,0.033,0.0346,0.0343,0.0382,0.0382,0.0381,0.0381,0.0381,0,-0.0587,-0.0605,-0.0611,-0.0622,-0.0655,-0.0619,-0.0632,-0.0599,-0.0546,-0.0518,-0.0417,-0.036,-0.0191,-0.0064,0.0069,0.0227,0.0252,0.0329,0.0358,0.0319,0.0312,0.0352,0.0348,0.0385,0.0384,0.0383,0.0383,0,-0.0627,-0.0628,-0.066,-0.0669,-0.0679,-0.0704,-0.07,-0.0697,-0.0641,-0.0597,-0.0576,-0.043,-0.0265,-0.0094,0.0119,0.0206,0.0363,0.0413,0.0348,0.0372,0.0399,0.039,0.0483,0.0483,0.0483,0.0483,0.0483,0,-0.0643,-0.0665,-0.0712,-0.0746,-0.0757,-0.0785,-0.0801,-0.0757,-0.0739,-0.0627,-0.0602,-0.0447,-0.0333,-0.005,0.0121,0.0357,0.0389,0.0451,0.0432,0.0391,0.0411,0.0403,0.0394,0.0483,0.0483,0.0483,0.0483,0,-0.0676,-0.0703,-0.0733,-0.0812,-0.0851,-0.0878,-0.0888,-0.088,-0.0805,-0.0756,-0.0605,-0.0446,-0.0264,-0.005,0.0126,0.0299,0.0399,0.0452,0.0453,0.0436,0.0393,0.0411,0.0402,0.0483,0.0483,0.0483,0.0483,0,-0.0705,-0.0744,-0.08,-0.086,-0.0921,-0.0948,-0.0945,-0.0894,-0.0858,-0.0716,-0.0665,-0.0446,-0.0315,-0.0078,0.0095,0.0248,0.0283,0.0317,0.0325,0.0327,0.0246,0.0166,0.0215,0,0,0,0,0,-0.0724,-0.0772,-0.0841,-0.0905,-0.0967,-0.0993,-0.0989,-0.0965,-0.0889,-0.0789,-0.0719,-0.0535,-0.026,-0.0132,0.0017,0.0069,0.0282,0.0244,0.0318,0.0484,0.0484,0.0412,0,0,0,0,0,0,-0.0739,-0.0809,-0.0844,-0.0929,-0.0978,-0.1029,-0.1026,-0.0974,-0.0898,-0.08,-0.0646,-0.0529,-0.0262,-0.0349,0.001,0.0058,0.0118,0.0386,0.0389,0.0484,0.0484,0.0484,0.041,0,0,0,0,0]}]]